Overview Statistics Trail Chart Weather Telemetry Raw packets
 

This is the latest recevied weather packets stored in our database for station/object N0KTA-2. If no packets are shown the sender has not sent any weather packets the latest 10 day(s).

<< 22 23 24 25 26 27 28 >>
Time Temp. Humidity Pressure Rain* Wind** Luminosity Snow
1788331102 27.78° C 56% 1008.1 hPa 0 mm - - -
1788330503 27.78° C 55% 1008.1 hPa 0 mm - - -
1788329904 27.78° C 55% 1008.1 hPa 0 mm - - -
1788329303 27.78° C 55% 1008.1 hPa 0 mm - - -
1788328704 28.33° C 55% 1008.1 hPa 0 mm - - -
1788328103 28.33° C 54% 1008.2 hPa 0 mm - - -
1788327527 28.33° C 54% 1008.1 hPa 0 mm - - -
1788326903 28.33° C 54% 1008.2 hPa 0 mm - - -
1788326304 28.33° C 53% 1008.2 hPa 0 mm - - -
1788325703 28.89° C 52% 1008.2 hPa 0 mm - - -
1788325103 28.89° C 52% 1008.2 hPa 0 mm - - -
1788324502 28.89° C 51% 1008.2 hPa 0 mm - - -
1788323903 28.89° C 51% 1008.2 hPa 0 mm - - -
1788323302 29.44° C 50% 1008.2 hPa 0 mm - - -
1788322703 29.44° C 50% 1008.2 hPa 0 mm - - -
1788322103 28.89° C 49% 1008.2 hPa 0 mm - - -
1788321502 28.89° C 49% 1008.4 hPa 0 mm - - -
1788320903 28.89° C 48% 1008.4 hPa 0 mm - - -
1788320303 29.44° C 48% 1008.3 hPa 0 mm - - -
1788319704 29.44° C 47% 1008.3 hPa 0 mm - - -
1788319102 29.44° C 46% 1008.2 hPa 0 mm - - -
1788318503 30° C 45% 1008.2 hPa 0 mm - - -
1788317903 30° C 44% 1008.1 hPa 0 mm - - -
1788317304 30.56° C 44% 1007.9 hPa 0 mm - - -
1788316703 30.56° C 43% 1007.9 hPa 0 mm - - -

* Rain latest hour (hover to see other rain measurements)
** Current wind speed in m/s (hover to see current wind gust speed)